This is the latest recevied weather packets stored in our database for station/object KI4HRG. If no packets are shown the sender has not sent any weather packets the latest 10 day(s).
| Time | Temp. | Humidity | Pressure | Rain* | Wind** | Luminosity | Snow |
|---|---|---|---|---|---|---|---|
| 1787964092 | 28.33° C | 63% | 1015.7 hPa | 0 mm | - | 0 W/m² | - |
| 1787963786 | 28.89° C | 63% | 1015.7 hPa | 0 mm | - | 0 W/m² | - |
| 1787963481 | 28.89° C | 62% | 1015.8 hPa | 0 mm | - | 0 W/m² | - |
| 1787963177 | 28.89° C | 61% | 1015.7 hPa | 0 mm | - | 0 W/m² | - |
| 1787962875 | 28.89° C | 61% | 1015.6 hPa | 0 mm | - | 0 W/m² | - |
| 1787962574 | 28.89° C | 60% | 1015.6 hPa | 0 mm | - | 1 W/m² | - |
| 1787962274 | 28.89° C | 60% | 1015.5 hPa | 0 mm | - | 3 W/m² | - |
| 1787961968 | 29.44° C | 60% | 1015.6 hPa | 0 mm | - | 5 W/m² | - |
| 1787961663 | 29.44° C | 58% | 1015.6 hPa | 0 mm | - | 6 W/m² | - |
| 1787961357 | 30° C | 57% | 1015.5 hPa | 0 mm | - | 7 W/m² | - |
| 1787961051 | 30° C | 56% | 1015.3 hPa | 0 mm | - | 12 W/m² | - |
| 1787960750 | 30.56° C | 56% | 1015.4 hPa | 0 mm | - | 15 W/m² | - |
| 1787960445 | 30.56° C | 55% | 1015.3 hPa | 0 mm | - | 19 W/m² | - |
| 1787960140 | 30.56° C | 54% | 1015.3 hPa | 0 mm | - | 24 W/m² | - |
| 1787959839 | 31.11° C | 53% | 1015.2 hPa | 0 mm | - | 28 W/m² | - |
| 1787959534 | 31.11° C | 51% | 1015.3 hPa | 0 mm | - | 31 W/m² | - |
| 1787959229 | 31.11° C | 52% | 1015.2 hPa | 0 mm | - | 34 W/m² | - |
| 1787958929 | 31.11° C | 51% | 1015.3 hPa | 0 mm | - | 36 W/m² | - |
| 1787958624 | 31.67° C | 52% | 1015.2 hPa | 0 mm | - | 39 W/m² | - |
| 1787958320 | 31.67° C | 51% | 1015.4 hPa | 0 mm | - | 40 W/m² | - |
| 1787958016 | 31.67° C | 51% | 1015.1 hPa | 0 mm | - | 42 W/m² | - |
| 1787957714 | 31.67° C | 51% | 1015.4 hPa | 0 mm | - | 45 W/m² | - |
| 1787957409 | 31.67° C | 50% | 1015.2 hPa | 0 mm | - | 49 W/m² | - |
| 1787957108 | 31.67° C | 52% | 1015 hPa | 0 mm | - | 51 W/m² | - |
| 1787956803 | 32.22° C | 51% | 1015.1 hPa | 0 mm | - | 49 W/m² | - |
* Rain latest hour (hover to see other rain measurements)
** Current wind speed in m/s (hover to see current wind gust speed)